Station MKGM4 - Muskegon CG Station, Muskegon, MI Image indicating link to RSS feed of recent meteorological observations for station MKGM4


Conditions at MKGM4 as of
(7:40 am EDT)
1140 GMT on 06/23/2024:
     

Click on the graph icon in the table below to see a time series plot of the last five days of that observation.

5-day plot - Wind Direction Wind Direction (WDIR):WNW ( 300 deg true )
5-day plot - Wind Speed Wind Speed (WSPD): 16 kts
5-day plot - Wind Gust Wind Gust (GST): 18 kts
5-day plot - Atmospheric Pressure Atmospheric Pressure (PRES):29.65 in
5-day plot - Air Temperature Air Temperature (ATMP): 63.1 °F
5-day plot - Dew Point Dew Point (DEWP): 63.1 °F
5-day plot -  Wind Speed, Wind Gust and Atmospheric Pressure Combined plot of Wind Speed, Gust, and Air Pressure
Previous observations
TIME
(EDT)
5-day plot - Wind Direction
WDIR
 
5-day plot - Wind Speed
WSPD
kts
5-day plot - Wind Gust
GST
kts
5-day plot - Wave Height
WVHT
ft
5-day plot - Dominant Wave Period
DPD
sec
5-day plot - Average Wave Period
APD
sec
5-day plot - Mean Wave Direction
MWD
 
5-day plot - Atmospheric Pressure
PRES
in
5-day plot - Pressure Tendency
PTDY
in
5-day plot - Air Temperature
ATMP
°F
5-day plot - Water Temperature
WTMP
°F
5-day plot - Dew Point
DEWP
°F
5-day plot - Salinity
SAL
psu
5-day plot - Visibility
VIS
nmi
5-day plot - Tide (above MLLW)
TIDE
ft
2024-06-23 07:30 amWNW 17 18----29.65- 63.1- 63.1---
2024-06-23 07:20 amWNW 18 20----29.65- 63.3- 63.3---
2024-06-23 07:10 amWNW 18 20----29.65- 63.3- 63.3---
2024-06-23 07:00 amWNW 17 19----29.64+0.04 63.5- 63.5---
2024-06-23 06:50 amWNW 14 15----29.64- 63.7- 63.7---
2024-06-23 06:40 amWNW 14 15----29.63- 63.9- 63.9---
2024-06-23 06:30 amWNW 13 14----29.63- 64.4- 64.4---
2024-06-23 06:20 am NW 13 15----29.63- 64.4- 64.4---
2024-06-23 06:10 amWNW 13 14----29.63- 64.6- 64.6---
2024-06-23 06:00 am NW 11 12----29.62+0.05 64.8- 64.8---
2024-06-23 05:50 am NW 12 14----29.62- 64.6- 64.6---
2024-06-23 05:40 am NW 15 16----29.62- 64.4- 64.4---
2024-06-23 05:30 am NW 16 18----29.62- 64.0- 64.0---
2024-06-23 05:20 am NW 19 20----29.62- 64.0- 64.0---
2024-06-23 05:10 am NW 21 23----29.61- 64.4- 64.4---
2024-06-23 05:00 am NW 20 22----29.61+0.01 64.4- 64.4---
2024-06-23 04:50 am NW 20 22----29.61- 64.8- 64.8---
2024-06-23 04:40 am NW 21 23----29.60- 65.1- 65.1---
2024-06-23 04:30 am NW 14 15----29.60- 65.7- 65.7---
2024-06-23 04:20 am NW 16 17----29.60- 65.3- 65.3---
2024-06-23 04:10 am W 15 16----29.60- 65.3- 65.3---
2024-06-23 04:00 amWSW 15 17----29.60+0.00 65.8- 65.8---
2024-06-23 03:50 amWSW 17 19----29.59- 66.4- 66.4---
2024-06-23 03:40 amWSW 18 20----29.59- 66.9- 66.9---
2024-06-23 03:30 am SW 18 21----29.58- 66.9- 66.9---
2024-06-23 03:20 am SW 19 21----29.58- 67.6- 67.6---
2024-06-23 03:10 am SW 18 20----29.58- 67.8- 67.8---
2024-06-23 03:00 am SW 16 20----29.58-0.05 67.6- 67.6---
2024-06-23 02:50 am SW 18 21----29.58- 68.0- 68.0---
2024-06-23 02:40 am SW 21 23----29.58- 68.0- 68.0---
2024-06-23 02:30 amSSW 20 22----29.58- 68.0- 68.0---
2024-06-23 02:20 amSSW 18 20----29.59- 68.0- 67.8---
2024-06-23 02:10 amSSW 16 17----29.59- 67.6- 67.6---
2024-06-23 02:00 amSSW 16 18----29.59-0.10 67.5- 67.5---
2024-06-23 01:50 am S 16 18----29.59- 67.6- 67.6---
2024-06-23 01:40 am S 18 20----29.60- 67.6- 67.6---
2024-06-23 01:30 am S 18 20----29.61- 67.8- 67.8---
2024-06-23 01:20 am S 17 19----29.60- 69.1- 68.5---
2024-06-23 01:10 amSSE 17 18----29.59- 70.5- 68.5---
2024-06-23 01:00 amESE 10 12----29.59-0.04 71.1- 69.6---
2024-06-23 12:50 amESE 8 10----29.60- 70.3- 70.3---
2024-06-23 12:40 am E 8 10----29.61- 70.3- 70.3---
2024-06-23 12:30 am E 9 12----29.62- 70.5- 70.5---
2024-06-23 12:20 am E 9 13----29.62- 70.5- 70.5---
2024-06-23 12:10 am E 11 14----29.62- 70.3- 70.3---
2024-06-23 12:00 am E 11 13----29.63-0.05 70.3- 70.3---
2024-06-22 11:50 pm E 8 10----29.63- 70.2- 70.2---
2024-06-22 11:40 pm NE 9 11----29.63- 70.3- 70.3---
2024-06-22 11:30 pmENE 12 15----29.61- 70.0- 70.0---
2024-06-22 11:20 pm NE 9 11----29.65- 69.8- 69.8---
2024-06-22 11:10 pmNNW 11 13----29.69- 69.6- 69.6---
2024-06-22 11:00 pm NW 26 29----29.69-0.02 70.9- 69.6---
2024-06-22 10:50 pmWNW 13 22----29.68- 73.9- 69.3---
2024-06-22 10:40 pmSSE 13 15----29.65- 73.4- 69.8---
2024-06-22 10:30 pm SE 8 13----29.65- 73.2- 70.0---
2024-06-22 10:20 pmESE 9 12----29.63- 73.4- 70.0---
2024-06-22 10:10 pmESE 10 12----29.62- 73.2- 70.0---
2024-06-22 10:00 pmESE 10 13----29.64-0.09 72.0- 70.2---
2024-06-22 09:50 pmESE 7 9----29.64- 71.6- 70.2---
2024-06-22 09:40 pmESE 9 10----29.63- 70.9- 70.2---
2024-06-22 09:30 pmESE 8 10----29.64- 70.7- 70.3---
2024-06-22 09:20 pmESE 8 11----29.65- 70.2- 70.2---
2024-06-22 09:10 pm E 9 12----29.66- 70.3- 70.3---
2024-06-22 09:00 pmESE 5 6----29.68-0.07 70.0- 70.0---
2024-06-22 08:50 pm NE 3 4----29.69- 69.4- 69.4---
2024-06-22 08:40 pmNNW 6 7----29.70- 68.7- 68.7---
2024-06-22 08:30 pm NW 13 15----29.72- 69.3- 68.9---
2024-06-22 08:20 pmNNW 4 7----29.71- 70.3- 70.3---
2024-06-22 08:10 pm NW 4 7----29.69- 71.1- 70.7---
2024-06-22 08:00 pmWSW 5 7----29.71-0.06 70.7- 69.4---
2024-06-22 07:50 pmWNW 4 6----29.71- 70.2- 69.4---
2024-06-22 07:40 pmWSW 5 6----29.71- 70.3- 69.3---
2024-06-22 07:30 pm SW 7 7----29.71- 70.3- 69.1---
2024-06-22 07:20 pm SW 10 11----29.72- 70.7- 69.1---
2024-06-22 07:10 pmSSW 12 13----29.71- 71.6- 68.9---
2024-06-22 07:00 pmSSW 12 13----29.72-0.09 70.7- 68.4---
2024-06-22 06:50 pmSSW 13 14----29.72- 71.1- 68.4---
2024-06-22 06:40 pm S 13 14----29.73- 70.7- 68.2---
2024-06-22 06:30 pm S 10 11----29.75- 70.3- 68.4---
2024-06-22 06:20 pm S 10 11----29.75- 70.9- 68.7---
2024-06-22 06:10 pm S 11 12----29.74- 71.2- 68.9---
2024-06-22 06:00 pm S 12 12----29.75-0.06 71.4- 69.3---
2024-06-22 05:50 pmSSE 12 13----29.75- 71.1- 69.6---
2024-06-22 05:40 pm S 10 11----29.76- 71.8- 69.4---
2024-06-22 05:30 pmSSE 9 11----29.76- 71.2- 69.8---
2024-06-22 05:20 pmSSE 11 12----29.76- 70.9- 69.8---
2024-06-22 05:10 pm SE 11 12----29.77- 70.2- 70.0---
2024-06-22 05:00 pm SE 11 11----29.77-0.06 69.6- 69.6---
2024-06-22 04:50 pm S 7 8----29.78- 69.8- 69.8---
2024-06-22 04:40 pm S 9 10----29.78- 70.0- 69.6---
2024-06-22 04:30 pm S 12 13----29.79- 70.3- 69.8---
2024-06-22 04:20 pm S 11 12----29.79- 70.2- 69.4---
2024-06-22 04:10 pmSSW 9 11----29.81- 70.2- 69.8---
2024-06-22 04:00 pm S 12 14----29.81-0.04 70.0- 69.6---
2024-06-22 03:50 pmSSW 14 16----29.81- 70.9- 69.8---
2024-06-22 03:40 pm S 11 12----29.81- 70.2- 69.3---
2024-06-22 03:30 pm S 12 13----29.81- 70.5- 69.3---
2024-06-22 03:20 pm S 11 11----29.81- 70.2- 69.3---
2024-06-22 03:10 pm S 10 11----29.82- 70.2- 69.1---
2024-06-22 03:00 pm S 11 12----29.82-0.05 70.9- 69.3---
2024-06-22 02:50 pm S 11 12----29.82- 70.7- 69.3---
2024-06-22 02:40 pm S 13 14----29.83- 70.9- 69.1---
2024-06-22 02:30 pm S 14 15----29.83- 70.9- 69.1---
2024-06-22 02:20 pm S 14 16----29.83- 70.7- 69.1---
2024-06-22 02:10 pm S 15 16----29.83- 70.7- 69.1---
2024-06-22 02:00 pm S 16 17----29.83-0.06 70.9- 69.1---
2024-06-22 01:50 pm S 16 16----29.84- 71.2- 69.1---
2024-06-22 01:40 pm S 15 17----29.84- 70.9- 69.1---
2024-06-22 01:30 pm S 14 16----29.84- 70.7- 69.3---
2024-06-22 01:20 pm S 16 17----29.85- 70.9- 69.3---
2024-06-22 01:10 pmSSE 17 19----29.85- 71.1- 69.3---
2024-06-22 01:00 pmSSE 17 18----29.85-0.08 71.1- 69.3---
2024-06-22 12:50 pmSSE 17 19----29.85- 71.2- 69.3---
2024-06-22 12:40 pmSSE 17 18----29.85- 71.4- 69.3---
2024-06-22 12:30 pmSSE 17 19----29.86- 71.6- 69.3---
2024-06-22 12:20 pmSSE 17 19----29.86- 72.0- 69.4---
2024-06-22 12:10 pmSSE 17 18----29.86- 72.0- 69.6---
2024-06-22 12:00 pmSSE 16 17----29.86-0.08 72.1- 69.6---
2024-06-22 11:50 amSSE 17 19----29.87- 72.3- 69.8---
2024-06-22 11:40 amSSE 16 17----29.87- 72.1- 70.0---
2024-06-22 11:30 amSSE 14 15----29.88- 72.1- 70.2---
2024-06-22 11:20 amSSE 12 13----29.89- 71.8- 70.5---
2024-06-22 11:10 amSSE 11 12----29.89- 71.4- 70.3---
2024-06-22 11:00 amSSE 11 12----29.89-0.04 71.8- 70.0---
2024-06-22 10:50 am SE 12 13----29.90- 71.8- 69.8---
2024-06-22 10:40 amSSE 7 9----29.91- 71.2- 69.8---
2024-06-22 10:30 am SE 5 6----29.91- 70.5- 70.2---
2024-06-22 10:20 am SE 5 6----29.92- 70.0- 70.0---
2024-06-22 10:10 am SE 8 9----29.92- 69.8- 69.8---
2024-06-22 10:00 amSSE 13 14----29.93-0.05 69.8- 69.8---
2024-06-22 09:50 amSSE 15 16----29.93- 69.8- 69.4---
2024-06-22 09:40 am S 14 15----29.93- 69.1- 69.1---
2024-06-22 09:30 am S 13 15----29.93- 68.7- 68.7---
2024-06-22 09:20 am S 13 14----29.94- 68.5- 68.5---
2024-06-22 09:10 am S 10 13----29.94- 68.9- 68.9---
2024-06-22 09:00 am S 7 8----29.95-0.03 68.7- 68.7---
2024-06-22 08:50 am S 6 8----29.94- 68.0- 68.0---
2024-06-22 08:40 am S 5 6----29.94- 67.8- 67.8---
2024-06-22 08:30 am S 6 7----29.94- 68.0- 68.0---
2024-06-22 08:20 am S 5 6----29.94- 68.2- 67.8---
2024-06-22 08:10 amSSE 2 4----29.93- 68.2- 68.2---
2024-06-22 08:00 am E 4 5----29.93-0.02 67.8- 67.8---
2024-06-22 07:50 am E 5 6----29.94- 67.5- 67.5---